Regional Weather Roundup
Issued by NWS Jackson, KY

Home | Current Version | Previous Version | Text Only | Print | Product List | Glossary On
Versions: 1 2 3 4 5 6 7 8 9 10 11 12 13 14 15 16 17 18 19 20 21 22 23 24 25 26 27 28 29 30 31 32 33 34 35 36 37 38 39 40 41 42 43 44 45 46 47 48 49 50
000
ASUS43 KJKL 270110
RWRJKL

EAST KENTUCKY HOURLY WEATHER ROUNDUP
NATIONAL WEATHER SERVICE JACKSON KY
900 PM EDT SUN MAR 26 2017

NOTE: "FAIR" INDICATES FEW OR NO CLOUDS BELOW 12,000 FEET WITH
NO SIGNIFICANT WEATHER AND/OR OBSTRUCTIONS TO VISIBILITY.

* THESE REPORTS ARE NOT UNDER NWS QUALITY CONTROL AND MAY NOT
  REPORT WEATHER SUCH AS PRECIPITATION AND FOG.

KYZ079-080-083-085-087-088-110-112-115-119-120-270200
...EASTERN KENTUCKY...

CITY           SKY/WX    TMP DP  RH WIND       PRES   REMARKS
JACKSON        LGT RAIN  59  57  93 VRB3      30.00R
LONDON         CLOUDY    61  56  83 SW3       30.01R
SOMERSET*      CLOUDY    63  52  67 SW5       30.02R
MONTICELLO*    CLOUDY    65  55  70 SW13      30.02R
WILLIAMSBURG*  PTCLDY    63  59  88 CALM      30.02R
MIDDLESBORO*   CLEAR     67  54  62 SW3       30.02R
HARLAN APT*    MOCLDY    66  50  55 CALM      30.02R
PIKE CO APT*     N/A     59  59 100 CALM      30.02R
BIG SANDY APT* MOCLDY    60  59  97 S5        30.01S
MOREHEAD APT*  CLOUDY    59  55  88 S5        30.00R
ASHLAND*       MOCLDY    59  55  88 SE3       29.96R
$$

KYZ035-036-041-042-044-050-067-078-099-270200
...CENTRAL KENTUCKY...

CITY           SKY/WX    TMP DP  RH WIND       PRES   REMARKS
MT STERLING*   PTCLDY    59  55  88 SW5       29.99R
FLEMING/MASON* CLOUDY    59  56  91 SW6       29.97S
DANVILLE*      CLOUDY    57  54  88 S3        29.98S
LEXINGTON      CLOUDY    61  54  77 S8        29.97R
FRANKFORT      CLOUDY    63  53  70 SW8       29.94R
LOUISVILLE     LGT RAIN  64  53  67 W12       29.96R
LEBANON*         N/A     63  57  82 S6        29.98R
GLASGOW*       CLOUDY    65  53  65 SW3       29.97R
BOWLING GREEN  CLOUDY    67  52  58 W5        29.98R
$$

KYZ091>093-OHZ055-061-077-WVZ005-015-034-035-042-270200
...SOUTHERN OHIO/WEST VIRGINIA...

CITY           SKY/WX    TMP DP  RH WIND       PRES   REMARKS
COVINGTON      MOCLDY    57  55  93 SW6       29.94R
COLUMBUS       LGT RAIN  55  54  96 W3        29.94S FOG
DAYTON         CLOUDY    58  54  86 S9        29.93R
WILMINGTON     LGT RAIN  55  54  96 S5        29.95R
HUNTINGTON     LGT RAIN  60  56  86 S7        29.98R
CHARLESTON     HVY RAIN  59  57  93 W3        30.02R FOG
PINEVILLE*     CLOUDY    56  53  90 MISG      30.10S
BECKLEY        MOCLDY    56  52  86 SE8       30.07R
BLUEFIELD      CLEAR     57  49  74 S10       30.09S
LOGAN CO APT*  HVY RAIN  59  59 100 CALM      30.03R VSB 1/2
$$

VAZ002-007-008-TNZ017-027-036-066-071-270200
...SOUTHWEST VIRGINIA/EAST TENNESSEE...

CITY           SKY/WX    TMP DP  RH WIND       PRES   REMARKS
WISE*          MOCLDY    59  50  72 S9        30.08R
JONESVILLE*      N/A     66  54  63 SW7       30.05R
ABINGDON*      CLOUDY    63  54  73 CALM      30.07R
BRISTOL        CLOUDY    65  54  67 CALM      30.05R
MORRISTOWN*    PTCLDY    63  59  88 CALM      30.03R
SEVIERVILLE*   CLEAR     68  50  52 SW6       30.02R
KNOXVILLE      PTCLDY    64  54  69 SW7       30.01R
LAFOLLETTE*    MOCLDY    68  48  49 SW8G14    30.05R
OAK RIDGE      MOCLDY    69  51  52 VRB3      30.03R
CROSSVILLE     PTCLDY    62  52  69 VRB5      30.06R
NASHVILLE      MOCLDY    66  54  65 S6        29.99R
$$

...KEY TO REMARKS...
VSB - VISIBILITY IN MILES
WCI - WIND CHILL INDEX
HX  - HEAT INDEX

$$



USA.gov is the U.S. government's official web portal to all federal, state and local government web resources and services.